User: anonymous   Login
Location: Unspecified
(0.0000°N, 0.0000°E)
Time: 15:29:25
(UTC+00:00)
Language:

Nadezhda 3 - Orbit

View from above orbital plane
View from above orbital plane
View from above satellite
View from above satellite

Ground track
Ground track

The orbit data is extracted from the following two-line orbital elements,

1 21152U 91019A   17229.36658531  .00000031  00000-0  16018-4 0  9993
2 21152  82.9290 175.9498 0043069  63.1708  93.2732 13.74221175325350
Epoch (UTC): 17 August 2017 08:47:52
Eccentricity: 0.0043069
inclination: 82.9290°
perigee height: 953 km
apogee height: 1016 km
right ascension of ascending node: 175.9498°
argument of perigee: 63.1708°
revolutions per day: 13.74221175
mean anomaly at epoch: 93.2732°
orbit number at epoch: 32535

The dashed part of the orbit path shows where the satellite is in the earth's shadow,  

DLR